Wetbulb
53.26 53.20 53.45 53.60 53.78 53.73 53.99 54.14 54.16 54.35 54.50 54.67 54.80 54.75 54.53 54.53 54.39 49.01 43.37 47.65 52.58 58.93 61.05 53.84 59.04 57.62 54.58 53.37 54.84 48.54 40.32 37.84 41.50 43.80 45.57 49.94 49.09 53.95 56.88 55.06 55.04 56.34 55.69 57.47 59.54
53.26 53.23 53.34 53.74 53.84 53.87 53.93 53.88 54.01 54.14 54.10 54.34 54.23 54.16 54.19 54.33 48.32 44.33 49.85 54.69 57.31 59.54 53.01 49.07 45.90 54.11 47.21 48.72 53.39 46.20 39.14 40.75 45.65 47.55 46.80 48.78 48.11 50.42 51.83 51.89 53.61 54.94 56.42 58.28 59.25
53.16 53.46 53.83 53.94 53.91 53.73 53.98 54.03 54.12 54.21 54.24 54.07 53.88 53.86 53.78 52.24 37.72 38.17 59.67 60.39 57.29 57.36 54.68 53.22 52.30 50.88 47.49 49.69 49.66 50.42 45.83 45.28 46.87 48.24 49.10 49.57 49.95 52.02 51.53 49.14 52.06 53.50 54.51 55.97 56.42
52.85 53.24 53.45 53.46 53.38 53.55 53.77 53.92 54.13 54.30 54.20 53.90 53.77 53.16 53.09 47.05 30.01 40.08 58.91 56.67 55.77 54.47 52.97 50.73 47.54 45.14 41.36 44.79 50.80 46.67 51.29 52.38 51.38 53.36 54.35 52.97 55.16 53.60 53.00 52.80 55.12 54.93 55.47 54.67 55.09
52.41 52.96 53.11 52.98 53.02 53.08 53.43 53.72 53.86 53.90 53.76 53.35 53.31 53.30 47.08 38.22 37.65 47.10 54.57 51.76 48.44 47.07 51.42 48.62 44.09 44.55 38.83 40.41 44.75 47.36 48.91 52.42 54.03 53.78 53.51 54.40 52.63 53.34 53.85 56.35 56.70 56.34 56.09 54.89 54.51
52.10 52.16 52.28 52.59 52.78 52.82 53.24 53.83 53.72 53.74 53.48 53.85 53.47 52.97 44.34 33.42 45.74 48.64 48.34 47.90 45.37 43.28 42.21 46.96 45.44 45.09 41.78 40.19 42.91 43.02 44.23 46.31 48.27 49.52 49.72 50.38 50.89 50.99 52.97 55.11 54.93 55.18 54.89 55.34 54.67
51.66 51.63 52.05 52.23 52.49 52.78 53.42 53.74 53.84 53.89 54.74 54.24 53.54 51.18 43.58 39.14 47.98 49.26 47.96 46.27 46.05 46.18 41.88 43.45 47.01 45.32 42.03 39.52 43.43 43.09 39.85 41.42 42.90 43.27 45.38 47.85 45.78 47.24 52.12 53.27 52.54 53.48 54.63 54.92 54.92
51.32 51.65 51.88 52.02 52.36 52.80 53.17 53.58 53.77 54.36 55.44 54.25 53.76 48.33 38.60 48.17 48.82 48.14 47.02 45.81 47.37 46.80 45.32 45.12 44.34 40.71 41.46 42.73 41.74 39.86 39.49 36.33 43.48 43.47 45.82 47.58 42.17 49.31 52.01 52.22 52.04 53.26 53.53 53.77 53.36
51.63 51.79 51.71 51.94 52.38 52.87 53.08 53.26 53.78 54.21 54.77 54.04 46.43 43.65 38.55 50.56 47.07 49.91 48.46 45.70 46.89 46.00 45.12 47.56 42.96 39.39 39.02 36.38 33.75 35.40 34.46 33.32 38.12 44.01 43.93 44.73 42.77 47.11 50.93 50.38 49.06 49.39 50.47 51.57 52.97
51.44 52.00 51.63 51.94 52.40 52.76 52.54 52.97 52.74 52.14 52.88 52.16 50.20 40.01 41.10 41.05 45.15 47.81 49.05 47.69 44.88 43.34 41.18 40.14 37.97 34.49 32.91 33.85 29.13 31.73 31.36 35.80 35.83 41.11 43.15 41.04 42.29 45.61 48.21 48.42 48.04 48.41 49.54 49.91 50.47
51.08 51.46 51.67 51.92 52.11 52.19 49.39 43.55 40.24 38.89 40.60 37.68 39.50 39.63 41.21 44.84 48.11 45.94 47.87 45.11 43.40 40.13 33.12 36.03 31.13 30.01 34.56 36.66 36.35 35.48 34.54 33.65 37.82 41.95 39.52 39.92 41.43 43.51 44.91 45.49 46.17 47.55 48.56 49.71 50.64
51.08 51.04 51.26 51.57 51.76 51.68 44.10 40.76 41.90 42.02 35.08 42.44 42.08 41.98 44.61 44.78 41.24 43.77 47.27 39.19 38.50 32.66 35.14 32.08 29.85 34.65 37.82 37.10 36.02 34.49 32.30 31.87 37.19 40.70 39.25 38.31 37.71 41.22 43.13 43.82 44.92 46.08 47.57 47.86 47.93
51.02 50.34 50.57 51.14 51.37 45.60 41.94 43.57 44.68 41.99 33.03 37.59 41.08 41.99 42.95 42.53 39.73 40.29 42.97 40.45 36.55 33.03 32.73 29.31 33.15 38.47 36.93 34.57 33.90 32.77 31.87 33.08 33.81 38.70 40.38 38.25 36.93 39.57 43.47 44.15 45.57 46.28 46.90 47.74 48.20
51.21 50.38 50.29 50.31 44.39 42.37 41.98 45.70 45.00 42.32 25.98 32.74 38.47 41.67 43.17 42.30 38.60 46.24 46.31 41.23 37.35 32.29 33.34 31.26 35.57 35.09 33.15 33.41 34.76 28.99 36.50 36.69 36.65 34.33 28.82 37.49 28.62 37.44 40.89 41.85 43.41 44.62 45.48 46.77 46.37
50.58 50.43 50.10 49.68 42.21 41.25 44.09 44.81 42.91 38.13 16.32 36.31 38.47 44.94 43.63 37.84 40.39 42.87 47.26 41.33 35.02 34.77 34.88 30.60 32.29 31.90 31.14 32.69 35.54 32.36 37.99 35.73 35.13 31.97 29.38 32.37 28.70 35.65 38.45 37.44 40.01 43.41 44.92 45.54 46.62
50.30 50.30 49.99 45.75 43.58 44.47 45.41 42.77 40.01 25.80 15.50 32.14 38.32 36.66 35.98 37.67 38.68 42.29 42.32 44.25 43.20 36.99 35.79 33.96 37.82 36.13 34.25 36.54 36.72 37.71 35.00 34.10 32.77 29.78 23.36 30.60 30.59 31.99 34.56 38.65 41.80 43.20 43.58 45.24 45.63
50.49 50.33 48.10 47.18 40.53 43.83 42.39 37.01 24.44 17.89 32.80 30.99 32.20 35.85 34.33 32.88 34.90 37.87 36.03 36.09 33.32 29.39 28.82 32.65 33.19 37.10 38.32 32.86 35.35 33.73 27.55 20.74 19.79 20.72 22.84 32.47 30.30 33.92 37.50 40.74 41.61 42.99 44.24 45.27 45.97
49.95 47.59 47.41 47.19 44.82 44.35 37.70 30.09 20.05 28.19 29.77 36.27 35.20 34.52 30.15 32.68 32.61 34.76 33.08 32.65 37.62 35.80 31.23 28.58 24.28 34.41 39.53 34.23 30.76 30.38 28.56 21.25 19.39 20.47 23.05 33.27 27.56 32.69 40.80 43.15 43.79 44.53 44.07 44.45 44.81
47.84 42.56 42.10 44.06 46.35 41.10 33.62 22.32 22.25 28.80 34.82 33.37 33.68 29.60 28.79 32.09 32.08 31.45 29.82 32.09 35.83 36.40 29.77 29.54 28.87 38.47 39.13 39.25 36.64 30.55 26.81 31.89 25.07 26.38 22.66 27.60 32.13 38.13 42.15 42.17 43.17 42.85 44.04 43.34 44.66
40.36 40.08 41.90 45.54 43.85 38.77 30.99 28.87 29.08 36.12 37.07 35.65 28.28 31.07 26.00 28.60 28.77 28.17 29.10 35.24 35.18 38.34 37.23 32.23 26.18 36.24 38.68 39.36 40.13 33.20 34.42 25.25 23.15 19.88 19.89 25.37 27.93 30.44 36.77 38.58 41.78 42.55 43.73 44.32 49.78
38.81 37.64 43.40 44.48 42.68 35.07 24.74 27.90 33.05 38.46 38.65 34.91 32.12 31.04 30.36 29.55 29.38 28.28 29.90 35.08 37.89 36.52 36.45 33.07 29.86 30.42 35.02 31.68 29.54 32.86 28.24 28.57 26.61 24.90 22.04 22.07 26.22 36.63 38.20 40.06 40.33 46.43 52.45 45.74 53.60
36.43 33.33 43.56 42.20 32.20 27.63 25.13 32.17 38.31 36.99 40.46 38.13 36.26 33.96 31.27 31.40 29.64 29.31 29.63 33.87 38.81 36.83 31.78 34.91 30.25 26.27 29.03 34.51 36.65 33.75 30.91 29.85 24.00 23.87 25.32 24.07 26.06 39.56 39.03 40.43 42.54 44.00 53.01 52.97 57.89
38.04 36.83 42.79 40.27 23.70 23.43 30.94 34.17 36.31 36.07 36.31 36.83 35.20 36.21 35.06 31.07 28.51 31.96 32.99 38.01 37.81 35.72 32.17 33.07 27.52 23.61 24.84 29.65 33.82 30.50 32.47 31.54 30.66 28.78 25.21 23.21 26.93 39.39 40.42 41.49 43.75 44.03 53.05 56.68 57.35
39.12 30.28 34.08 34.43 32.95 29.10 31.70 33.68 32.94 38.98 37.43 37.89 35.67 36.11 34.21 33.26 34.51 31.85 31.92 36.70 37.58 37.63 41.99 37.76 27.56 25.08 19.99 25.34 30.06 27.72 31.42 33.27 31.57 25.12 26.18 28.43 31.19 37.39 39.61 39.87 42.77 47.29 53.17 56.97 58.15
34.63 30.93 33.84 27.09 28.59 30.31 33.99 34.71 33.29 33.43 38.18 37.36 34.81 35.11 34.97 31.99 31.91 31.76 33.03 34.11 37.40 39.37 36.10 34.70 29.08 28.93 30.36 32.11 31.96 30.60 30.58 31.42 30.01 31.12 28.14 30.74 32.04 37.67 38.16 40.36 42.73 50.88 55.29 56.67 57.51
29.73 30.44 33.29 30.18 31.67 30.72 32.49 32.09 33.41 34.98 35.17 33.58 33.62 35.36 36.13 33.30 33.43 31.25 34.17 34.64 34.00 36.70 34.76 33.84 29.84 30.17 28.51 32.03 31.89 29.86 32.05 32.64 32.51 32.62 32.58 34.03 33.74 41.12 43.43 42.74 45.34 52.51 56.16 56.46 57.64
37.46 35.12 34.17 31.03 29.00 27.13 28.52 32.94 33.52 35.85 37.68 38.09 37.38 35.86 34.62 36.20 38.80 38.53 38.73 37.99 37.31 36.51 33.77 34.13 29.59 26.64 22.83 30.51 30.47 25.08 30.47 31.48 32.90 34.87 34.05 30.63 36.53 41.05 41.62 43.89 45.51 52.21 55.95 56.58 57.59
MSLP
1020.66 1020.34 1020.07 1019.68 1019.34 1019.07 1018.72 1018.35 1017.92 1017.62 1017.45 1017.32 1017.06 1016.59 1016.33 1015.75 1014.98 1013.86 1012.82 1011.18 1010.94 1010.35 1010.32 1010.23 1009.93 1009.81 1009.92 1010.11 1010.05 1010.29 1010.85 1010.37 1009.31 1008.57 1006.74 1005.91 1005.65 1004.33 1003.35 1003.34 1003.13 1002.97 1003.19 1003.09 1003.19
1020.77 1020.39 1020.07 1019.71 1019.26 1018.80 1018.41 1018.03 1017.64 1017.36 1017.09 1016.89 1016.49 1016.20 1015.83 1015.22 1014.21 1012.77 1011.21 1011.00 1010.91 1010.63 1010.65 1010.35 1009.86 1009.86 1010.17 1010.02 1010.00 1010.17 1010.11 1009.15 1007.90 1007.41 1006.48 1005.63 1005.67 1004.99 1004.14 1003.59 1003.02 1003.01 1002.52 1002.53 1003.01
1020.85 1020.41 1019.97 1019.62 1019.27 1018.86 1018.36 1017.79 1017.36 1016.95 1016.68 1016.49 1016.27 1016.13 1015.83 1015.13 1014.18 1011.52 1010.54 1010.40 1010.47 1010.27 1010.30 1010.32 1010.14 1009.61 1010.04 1009.79 1009.55 1009.34 1008.41 1008.00 1007.04 1006.80 1006.47 1005.94 1005.31 1005.35 1004.41 1003.60 1003.22 1003.07 1002.99 1003.29 1003.40
1020.89 1020.50 1020.06 1019.61 1019.14 1018.67 1018.20 1017.78 1017.37 1016.92 1016.52 1016.31 1016.17 1015.98 1015.74 1015.15 1013.62 1010.55 1010.26 1010.40 1010.34 1009.62 1009.87 1010.08 1010.21 1009.95 1009.62 1009.36 1008.69 1008.63 1007.86 1007.38 1006.82 1006.80 1006.60 1006.05 1005.67 1005.36 1004.41 1004.06 1003.95 1003.61 1003.49 1003.76 1003.82
1020.90 1020.45 1020.00 1019.54 1018.99 1018.46 1017.92 1017.37 1017.03 1016.71 1016.51 1016.24 1016.06 1015.98 1015.82 1015.86 1013.44 1011.12 1010.82 1010.89 1010.50 1010.19 1010.24 1010.12 1010.16 1009.80 1009.27 1008.90 1008.80 1008.06 1007.60 1007.24 1006.98 1006.77 1006.58 1006.40 1005.63 1005.57 1003.83 1004.35 1004.21 1004.01 1003.55 1003.57 1003.64
1020.79 1020.32 1019.81 1019.24 1018.61 1018.00 1017.38 1016.73 1016.43 1016.36 1015.95 1015.69 1015.72 1016.04 1016.33 1015.04 1011.46 1011.01 1010.85 1010.80 1010.79 1010.93 1010.56 1010.22 1009.92 1009.46 1009.19 1008.61 1008.27 1007.44 1007.44 1007.37 1007.14 1006.59 1006.56 1006.38 1005.27 1005.23 1003.75 1004.07 1003.59 1003.34 1003.13 1003.02 1003.09
1020.72 1020.27 1019.76 1019.17 1018.52 1017.80 1017.10 1016.36 1015.75 1015.71 1015.10 1014.93 1015.17 1015.49 1015.19 1013.10 1011.14 1010.85 1011.25 1010.97 1010.84 1011.03 1010.82 1010.04 1009.71 1009.97 1008.78 1008.62 1007.82 1007.51 1007.75 1007.66 1007.17 1006.79 1006.47 1006.36 1004.93 1002.74 1003.70 1003.86 1003.37 1002.89 1002.67 1002.56 1002.41
1020.73 1020.26 1019.72 1019.11 1018.46 1017.74 1016.98 1016.16 1015.48 1015.17 1014.61 1014.73 1014.94 1015.15 1014.10 1011.57 1011.13 1011.13 1010.78 1010.36 1010.01 1010.13 1010.36 1009.58 1009.50 1009.58 1008.96 1008.37 1007.86 1007.89 1007.91 1007.58 1006.27 1006.75 1006.22 1006.17 1002.17 1002.56 1002.66 1003.09 1002.51 1001.94 1002.32 1002.30 1001.74
1020.61 1020.09 1019.49 1018.86 1018.16 1017.42 1016.62 1015.69 1014.90 1014.77 1014.58 1014.69 1015.06 1015.21 1013.29 1010.97 1010.72 1009.74 1009.99 1009.95 1009.55 1009.53 1009.71 1009.14 1009.19 1009.10 1008.74 1008.72 1008.81 1007.94 1007.26 1006.84 1006.42 1005.54 1005.88 1005.44 1000.88 1002.43 1002.45 1002.64 1002.39 1002.21 1001.69 1001.57 1001.24
1020.28 1019.69 1019.07 1018.45 1017.77 1017.10 1016.20 1015.02 1014.27 1014.51 1014.68 1014.67 1014.65 1015.15 1012.37 1010.96 1009.87 1009.22 1009.07 1009.03 1009.32 1009.31 1009.35 1009.53 1009.06 1008.64 1008.57 1008.70 1007.49 1007.57 1007.47 1006.64 1006.24 1005.65 1005.51 1004.77 1002.56 1003.42 1002.86 1002.73 1002.26 1001.91 1001.48 1001.08 1000.85
1020.20 1019.55 1018.94 1018.27 1017.64 1017.05 1016.31 1015.50 1015.43 1015.21 1015.03 1014.96 1014.22 1014.15 1012.52 1010.78 1009.90 1009.28 1008.46 1008.60 1008.64 1009.55 1009.66 1009.23 1009.19 1007.79 1007.50 1007.90 1007.79 1007.66 1007.51 1007.22 1006.58 1005.83 1005.72 1004.91 1004.02 1003.62 1003.35 1002.64 1002.20 1001.59 1001.25 1000.71 1000.36
1020.11 1019.49 1018.83 1018.14 1017.56 1017.12 1017.03 1016.99 1016.99 1017.42 1016.08 1014.01 1013.34 1012.99 1011.53 1010.92 1010.22 1009.13 1008.31 1008.82 1008.59 1009.70 1009.78 1009.64 1008.12 1008.20 1007.85 1007.70 1007.85 1007.76 1007.74 1007.55 1007.11 1006.25 1006.10 1005.52 1004.47 1003.97 1003.53 1002.68 1001.93 1001.36 1000.83 1000.65 1000.33
1019.84 1019.35 1018.57 1017.79 1017.42 1017.22 1017.33 1016.79 1016.75 1016.90 1016.79 1014.12 1012.65 1011.90 1010.72 1010.44 1009.91 1009.21 1008.72 1009.02 1008.88 1009.36 1009.45 1009.53 1008.60 1008.09 1007.65 1007.68 1007.76 1007.70 1007.71 1007.61 1007.48 1006.76 1005.87 1005.87 1003.93 1003.17 1001.91 1001.43 1000.86 1000.42 1000.15 999.83 999.67
1019.53 1019.01 1018.46 1017.60 1017.34 1017.45 1016.89 1016.23 1016.23 1016.40 1016.14 1014.08 1012.29 1011.02 1010.48 1010.12 1009.56 1008.86 1008.62 1008.86 1008.92 1009.27 1008.81 1008.75 1008.11 1007.79 1007.64 1007.54 1007.81 1007.76 1007.71 1007.67 1007.62 1007.52 1006.97 1006.49 1003.92 1002.60 1001.44 1000.35 1000.00 999.75 999.33 998.70 998.82
1019.17 1018.63 1018.20 1017.99 1017.64 1017.21 1016.21 1015.98 1015.78 1016.28 1015.92 1014.01 1012.18 1011.02 1011.16 1010.90 1009.96 1008.85 1008.44 1008.58 1008.80 1009.06 1009.06 1008.28 1007.70 1007.40 1007.23 1007.13 1007.23 1007.22 1007.57 1007.98 1008.20 1008.15 1007.86 1006.98 1006.61 1000.20 1000.34 999.65 999.16 998.66 998.23 997.95 997.71
1018.63 1018.08 1017.69 1017.63 1017.76 1016.35 1015.89 1015.76 1015.98 1016.66 1015.85 1014.31 1013.03 1012.36 1012.09 1011.13 1010.08 1009.18 1008.77 1008.82 1008.68 1008.52 1008.52 1008.08 1007.30 1007.27 1006.91 1006.70 1006.71 1006.96 1007.43 1008.04 1008.55 1008.74 1008.15 1006.60 1007.07 1000.11 1000.10 998.71 998.27 998.09 997.58 997.40 997.32
1017.97 1017.28 1017.37 1017.21 1016.71 1016.02 1015.69 1016.17 1016.95 1016.96 1016.45 1015.19 1014.05 1013.43 1012.88 1012.06 1010.71 1010.07 1009.54 1009.25 1009.63 1009.22 1008.79 1008.12 1007.46 1006.70 1006.53 1006.73 1006.78 1007.00 1007.54 1008.67 1009.70 1009.31 1007.25 1005.89 1006.01 1000.25 999.18 998.21 997.99 997.63 997.13 997.05 996.88
1017.33 1016.75 1016.89 1016.57 1016.13 1016.01 1016.13 1016.78 1017.55 1017.51 1016.63 1015.67 1014.79 1014.02 1013.35 1012.56 1011.71 1010.96 1010.36 1010.17 1010.14 1009.66 1009.28 1008.79 1007.45 1006.39 1005.90 1006.14 1006.39 1006.73 1007.36 1007.72 1008.09 1007.90 1006.73 1005.91 1003.61 1000.28 998.67 997.86 997.41 997.20 997.06 996.72 996.65
1017.00 1016.96 1016.89 1016.24 1015.92 1016.10 1016.94 1017.63 1017.93 1017.34 1016.46 1015.71 1014.81 1014.34 1013.78 1013.21 1012.96 1011.99 1011.11 1010.48 1010.01 1010.07 1010.08 1009.00 1008.26 1006.58 1006.00 1005.79 1005.98 1006.51 1006.90 1007.00 1007.80 1007.36 1006.60 1004.78 1001.96 1000.23 998.13 997.79 997.12 997.24 997.00 996.56 996.00
1018.08 1017.71 1017.01 1016.21 1016.06 1016.56 1017.62 1018.19 1017.59 1016.63 1015.88 1015.49 1015.26 1014.68 1014.16 1013.60 1013.20 1012.66 1011.44 1010.36 1010.19 1010.20 1010.30 1009.70 1008.80 1007.43 1006.61 1006.08 1006.27 1006.06 1006.37 1007.14 1007.84 1007.51 1006.51 1003.78 1002.07 1000.21 998.59 998.01 997.98 997.47 997.00 996.16 995.98
1018.29 1017.95 1016.82 1016.32 1016.35 1017.57 1018.66 1018.50 1017.29 1016.03 1015.59 1015.29 1014.82 1014.64 1014.35 1013.98 1013.54 1012.99 1011.76 1010.54 1010.19 1010.16 1010.21 1010.13 1009.97 1008.48 1007.37 1006.55 1006.19 1006.34 1006.53 1006.87 1007.16 1006.96 1005.84 1004.12 1001.50 999.12 998.06 998.40 998.34 997.61 996.71 995.90 996.06
1019.34 1018.75 1017.06 1016.50 1017.70 1019.17 1019.27 1018.53 1017.36 1015.96 1015.32 1014.87 1014.55 1014.37 1014.19 1014.10 1013.72 1013.04 1011.80 1010.70 1010.22 1010.34 1010.53 1010.50 1010.50 1009.81 1008.51 1007.29 1007.09 1007.06 1006.88 1006.99 1007.31 1006.85 1005.70 1004.77 1002.45 998.54 998.58 998.51 998.32 997.61 997.02 996.51 996.44
1020.22 1019.60 1017.57 1017.38 1018.95 1019.79 1019.27 1018.40 1017.33 1016.15 1015.53 1015.12 1014.90 1014.39 1014.24 1014.28 1014.07 1012.82 1011.89 1010.75 1010.59 1010.58 1010.66 1010.69 1010.95 1010.66 1009.09 1008.38 1007.69 1007.61 1007.40 1007.34 1007.15 1006.99 1005.77 1004.85 1001.79 999.02 998.43 998.57 998.27 997.97 997.28 997.11 997.31
1020.62 1020.42 1019.54 1019.51 1020.04 1020.17 1019.75 1018.29 1017.20 1015.94 1015.36 1015.29 1014.84 1014.25 1014.28 1014.02 1013.57 1012.82 1011.90 1011.14 1010.74 1010.71 1010.62 1011.02 1011.22 1011.17 1010.37 1009.20 1008.71 1008.41 1007.95 1007.75 1007.39 1006.70 1005.60 1004.07 1002.71 999.68 999.87 999.66 998.64 997.94 997.67 997.47 997.60
1021.29 1021.75 1021.41 1020.98 1020.65 1020.44 1019.83 1018.46 1017.13 1016.09 1015.53 1015.28 1014.91 1014.40 1014.40 1013.53 1012.95 1012.33 1011.70 1011.17 1010.60 1010.37 1010.73 1011.24 1011.32 1011.23 1010.49 1009.85 1009.08 1008.53 1007.85 1007.39 1006.98 1006.45 1005.60 1004.26 1002.77 1001.37 1000.91 1000.16 999.28 998.52 998.05 997.89 997.86
1022.13 1022.23 1021.78 1021.33 1020.76 1020.14 1019.20 1018.04 1017.07 1016.15 1016.03 1015.02 1014.75 1014.18 1013.96 1013.26 1012.72 1011.60 1011.53 1011.07 1010.61 1010.55 1010.66 1010.95 1010.80 1010.68 1010.03 1009.41 1008.62 1007.79 1006.95 1006.29 1005.92 1005.48 1004.78 1004.48 1002.64 1001.95 1000.80 999.95 999.19 998.66 998.41 998.10 998.03
1022.13 1022.25 1022.16 1021.35 1020.78 1020.33 1019.07 1017.85 1016.93 1016.42 1015.44 1015.03 1014.50 1013.86 1012.97 1012.01 1011.46 1010.68 1010.20 1009.57 1009.90 1009.94 1010.19 1010.47 1010.58 1010.49 1009.79 1008.92 1008.28 1006.86 1005.17 1004.72 1004.22 1004.03 1003.97 1003.49 1002.05 1001.56 1000.65 999.62 998.96 998.37 998.19 997.91 997.94
Wind_Speed
17 17 17 18 19 18 18 18 18 17 17 16 16 17 17 19 21 4 7 12 9 10 9 7 3 3 2 3 4 4 2 5 7 7 6 2 4 4 4 5 2 2 7 5 2
17 17 17 18 19 19 19 19 18 18 18 17 17 17 18 20 7 9 9 10 12 16 7 5 7 6 3 5 5 5 6 10 7 7 4 3 2 8 7 7 3 3 5 4 2
18 19 19 20 19 19 20 20 20 20 19 18 17 17 18 15 5 6 11 15 13 11 10 7 8 7 7 5 7 7 11 9 6 6 3 5 8 3 10 7 6 10 7 5 3
20 20 21 21 21 21 21 20 20 20 20 19 17 16 17 5 5 3 6 19 18 10 4 4 6 5 8 13 6 6 12 13 6 5 3 6 5 8 11 10 10 14 11 6 11
21 22 22 22 22 23 23 23 22 21 19 17 14 10 4 4 13 7 16 13 8 7 2 5 9 7 6 5 4 13 5 8 10 6 6 6 16 15 21 11 13 14 15 12 11
22 23 24 24 25 25 24 24 22 20 19 14 9 3 1 6 5 5 7 9 3 4 7 3 5 5 6 6 16 2 5 11 6 7 4 8 18 8 11 8 14 15 17 15 13
21 22 23 23 24 25 24 24 24 21 18 8 3 4 6 17 4 9 8 6 3 6 5 4 5 6 2 4 7 3 5 3 6 4 8 7 23 32 16 12 17 20 20 17 16
20 21 22 22 23 23 24 24 24 19 9 2 7 2 9 6 5 9 3 5 6 8 13 11 6 4 8 5 4 5 5 12 14 11 7 9 34 15 9 16 23 22 13 13 13
20 20 21 22 22 22 23 24 21 7 6 10 4 3 13 7 3 8 8 5 9 3 6 11 6 8 4 5 4 4 14 7 4 9 8 19 34 2 5 8 11 10 13 13 16
21 21 23 23 23 22 24 18 12 4 4 4 3 1 7 10 7 7 6 10 2 6 3 5 5 4 3 8 17 7 3 2 4 7 15 16 28 11 13 16 16 13 14 13 13
22 22 22 23 23 21 10 6 9 7 4 5 11 8 20 9 7 6 5 2 3 1 3 4 4 14 13 9 3 4 3 3 3 1 4 14 19 14 9 12 15 18 18 21 20
22 23 23 23 21 18 2 3 4 4 11 10 14 11 14 7 7 6 2 3 6 4 4 5 14 5 1 8 9 7 0 3 6 9 4 4 11 14 13 16 17 18 16 14 9
21 22 23 23 24 3 0 4 4 4 2 9 7 5 10 2 5 6 3 5 1 2 5 6 7 6 5 3 4 4 4 3 6 8 13 11 18 14 15 14 16 16 16 16 16
21 21 20 23 2 2 4 1 4 4 4 7 5 4 8 7 4 2 3 4 1 6 4 5 7 4 4 6 9 7 4 2 2 1 6 3 15 19 18 20 18 15 16 17 11
24 22 18 11 4 2 3 5 2 4 4 13 5 3 17 4 11 1 4 0 7 14 3 8 2 4 5 6 6 7 10 9 8 7 4 4 5 18 5 8 11 16 19 17 16
26 23 17 1 1 6 6 4 4 7 5 7 7 15 12 7 11 5 4 3 5 7 6 11 3 3 5 5 9 6 5 4 3 3 4 8 9 27 7 14 15 9 12 12 11
27 22 5 2 4 3 3 4 6 5 5 7 10 16 14 6 8 5 11 5 2 4 4 4 14 10 6 5 4 5 5 2 1 2 10 10 12 23 8 9 6 8 10 9 8
27 8 3 4 3 5 4 6 6 2 5 6 10 15 5 8 7 7 9 3 4 3 2 4 2 5 3 9 8 7 8 5 7 7 5 6 14 10 12 14 8 7 10 9 10
16 3 1 3 1 2 7 6 6 5 4 7 12 4 4 6 3 7 4 3 3 4 3 4 5 5 2 2 6 4 5 7 3 3 1 6 7 7 16 13 11 9 9 12 11
3 4 4 5 2 5 6 2 3 5 5 6 4 4 6 11 6 5 4 3 3 1 3 4 5 2 3 3 9 5 3 3 1 5 5 6 6 7 10 4 8 10 11 12 3
4 4 3 5 4 6 3 5 5 6 5 4 6 8 9 8 4 4 7 7 2 2 0 1 1 5 5 4 6 3 3 2 3 5 4 3 6 7 8 4 6 14 19 11 8
3 2 3 3 5 1 0 4 6 7 2 6 4 5 5 3 5 4 7 4 2 1 6 2 1 3 8 6 4 3 3 5 4 6 5 4 9 7 3 8 12 15 10 5 9
3 4 4 4 3 3 5 5 4 4 7 3 5 4 1 3 6 5 5 6 1 4 4 1 1 4 4 2 4 0 4 4 2 2 6 4 9 4 8 16 16 14 7 2 7
3 5 5 5 1 3 5 5 5 6 7 3 6 4 3 7 8 6 6 6 1 5 8 2 2 5 5 2 2 3 7 8 3 5 5 11 12 23 16 15 20 20 4 5 7
4 1 2 5 3 5 4 5 9 6 3 1 5 4 8 8 13 14 12 7 8 6 0 5 6 5 8 8 9 10 14 13 15 10 8 3 9 16 10 15 15 11 1 6 9
2 3 4 4 5 4 4 4 7 7 6 11 7 15 14 14 15 22 18 14 12 4 6 6 4 2 8 10 11 14 16 17 18 18 16 12 22 13 12 9 10 7 4 6 10
1 2 2 4 4 2 4 4 9 15 9 9 14 17 15 16 12 19 20 22 15 7 7 6 5 3 5 4 5 10 15 18 16 13 12 14 12 11 8 14 8 6 7 7 8
Wind_Direction
358 355 351 347 345 343 342 338 336 334 331 328 328 331 328 324 316 277 256 224 210 267 340 298 252 183 106 222 179 129 117 214 214 183 248 315 320 205 199 198 115 197 163 220 19
356 352 348 345 342 340 337 333 330 326 325 325 329 331 331 327 307 274 270 260 278 289 298 244 237 180 192 198 205 167 179 215 203 202 242 261 310 327 329 346 197 288 265 213 307
354 350 347 345 341 337 332 328 324 321 318 320 325 329 332 327 313 228 138 19 343 296 237 266 316 207 202 177 195 198 219 210 226 213 256 267 306 267 306 318 285 293 307 315 5
352 348 344 341 337 334 329 323 318 315 315 317 323 332 332 334 322 174 317 355 344 321 175 205 227 233 184 207 196 214 222 217 223 179 223 259 303 288 278 265 292 287 284 289 279
348 345 343 340 336 332 328 324 321 316 314 313 316 329 13 358 255 349 335 345 336 360 236 199 214 213 197 203 203 235 214 210 226 225 242 277 256 255 263 265 260 269 276 269 263
347 344 341 337 335 333 329 324 319 320 316 306 295 300 44 278 249 310 336 337 41 10 326 221 238 220 272 208 205 83 212 238 239 241 228 251 269 251 246 244 265 267 266 262 252
341 339 337 335 333 330 327 322 317 324 322 302 221 181 229 241 257 297 305 279 225 255 254 242 253 239 209 291 246 265 279 265 220 203 236 196 267 248 249 248 253 253 260 266 252
337 335 332 331 330 329 325 317 311 317 320 76 143 171 250 260 271 301 253 292 246 231 228 253 258 267 182 282 318 189 173 235 229 184 222 156 259 262 207 222 246 256 254 251 259
335 332 330 330 330 330 324 310 303 308 99 127 102 124 272 290 265 232 174 281 324 272 212 258 160 205 147 197 351 253 234 214 250 205 182 189 250 200 264 255 256 268 272 263 269
336 332 330 331 334 334 325 312 298 96 140 178 179 288 278 309 293 277 228 249 218 309 303 204 226 182 168 167 214 201 168 158 189 201 197 219 249 260 271 270 271 265 267 267 265
335 332 330 330 332 337 344 4 9 348 36 261 270 256 278 275 279 270 254 198 76 0 280 238 193 215 214 235 256 46 97 63 342 233 352 235 255 261 264 271 267 266 264 267 270
333 331 329 327 331 329 31 51 126 239 301 295 250 247 260 257 294 304 65 201 120 262 319 328 237 246 113 194 241 272 219 236 276 267 230 275 274 276 254 259 257 262 266 260 258
330 333 331 326 324 61 187 227 123 152 236 293 245 261 269 231 274 288 5 354 106 215 240 207 266 221 175 211 196 188 199 186 220 291 284 300 285 269 263 244 252 252 253 252 246
327 332 332 331 61 289 275 316 320 162 45 287 325 306 353 292 311 210 169 170 93 259 232 206 263 191 189 223 223 237 180 271 330 167 257 38 290 271 272 263 254 250 247 250 229
326 327 325 326 281 298 244 315 318 66 351 317 327 288 325 314 299 252 319 231 214 225 307 247 224 247 222 204 176 235 176 206 220 256 284 251 311 279 202 261 263 251 257 249 242
327 323 319 119 209 248 316 324 63 48 281 328 328 326 343 303 322 298 273 56 297 242 221 249 266 201 229 261 206 201 182 155 80 133 250 213 194 276 222 241 242 259 250 251 257
328 321 271 169 232 319 320 50 43 100 321 324 320 325 321 296 319 335 331 332 45 315 33 256 238 238 240 280 243 183 113 119 91 200 230 186 188 239 264 302 238 265 270 258 254
331 348 184 226 284 360 47 51 74 250 265 292 306 311 296 4 308 312 320 348 291 289 139 275 286 174 221 187 195 191 165 167 175 192 213 207 230 249 239 246 287 276 263 272 267
334 337 339 283 262 86 62 51 195 218 247 301 315 291 288 317 280 334 294 279 325 4 303 204 269 320 1 199 152 179 176 209 359 290 86 215 280 299 278 273 295 302 284 265 252
8 347 319 310 30 53 67 272 231 218 293 296 265 238 292 316 329 355 290 243 325 219 143 311 305 198 149 224 231 174 199 131 313 208 234 254 253 235 305 352 330 316 298 275 190
36 39 276 333 57 45 113 248 279 254 298 277 256 273 285 299 277 283 272 305 53 314 192 326 76 303 338 210 193 169 263 230 183 180 207 300 274 228 243 65 322 341 331 288 161
4 41 314 22 45 72 29 293 283 275 309 280 251 255 249 312 275 263 241 231 162 357 315 19 147 264 246 264 6 352 270 199 187 253 258 113 288 293 5 34 358 337 331 358 155
3 291 326 70 78 323 304 283 268 296 305 325 285 251 263 255 283 258 290 303 245 179 220 186 279 312 303 9 39 314 289 234 204 123 220 234 253 235 350 360 342 336 325 112 153
7 358 328 39 47 107 318 288 280 257 278 327 265 263 345 283 238 278 276 296 282 217 248 173 213 217 228 274 116 293 293 295 239 229 243 241 296 278 309 344 330 334 300 185 153
25 318 202 306 316 315 253 267 287 314 237 268 281 259 305 292 298 264 257 265 260 269 4 173 223 229 254 279 284 263 267 268 267 256 250 314 261 288 322 312 299 319 278 172 156
49 27 352 287 280 264 261 255 294 310 304 307 259 301 297 288 278 290 280 264 266 248 179 188 233 205 288 272 252 264 259 256 252 254 256 254 273 276 277 273 288 314 224 178 173
304 337 127 269 294 338 250 259 294 316 288 257 295 298 294 289 285 275 267 264 248 218 203 192 191 148 252 244 322 275 250 254 246 226 217 226 257 278 294 293 285 297 221 197 175